CAPE
0 0 0 0 0 0 0 0 0 0 0 0 0 0 0 0 0 0 0 0 0 0 0 0 0 0 0 0 0 0 0 0 0 0 0 0 0 0 0 0 0 0 0
0 0 0 0 0 0 0 0 0 0 0 0 0 0 0 0 0 0 0 0 0 0 0 0 0 0 0 0 0 0 0 0 0 0 0 0 0 0 0 0 0 0 0
0 0 0 0 0 0 0 0 0 0 0 0 0 0 0 0 0 0 0 0 0 0 0 0 0 0 0 0 0 0 0 0 0 0 0 0 0 0 0 0 0 0 0
0 0 0 0 0 0 0 0 0 0 0 0 0 0 0 0 0 0 0 0 0 0 0 0 0 0 0 0 0 0 0 0 0 0 0 0 0 0 0 0 0 0 0
0 0 0 0 0 0 0 0 0 0 0 0 0 0 0 0 0 0 0 0 0 0 0 0 0 0 0 0 0 0 0 0 0 0 0 0 0 0 0 0 0 0 0
0 0 0 0 0 0 0 0 0 0 0 0 0 0 0 0 0 0 0 0 0 0 0 0 0 0 0 0 0 0 0 0 0 0 0 0 0 0 0 0 0 0 0
0 0 0 0 0 0 0 0 0 0 0 0 0 0 0 0 0 0 0 0 0 0 0 0 0 0 0 0 0 0 0 0 0 0 0 0 0 0 0 0 0 0 0
0 0 0 0 0 0 0 0 0 0 0 0 0 0 0 0 0 0 0 0 0 0 0 0 0 0 0 0 0 0 0 0 0 0 0 0 0 0 0 0 0 0 0
0 0 0 0 0 0 0 0 0 0 0 0 0 0 0 0 0 0 0 0 0 0 0 0 0 0 0 0 0 0 0 0 0 0 0 0 0 0 0 0 0 0 0
0 0 0 0 0 0 0 0 0 0 0 0 0 0 0 0 0 0 0 0 0 0 0 0 0 0 0 0 0 0 0 0 0 0 0 0 0 0 0 0 0 0 0
0 0 0 0 0 0 0 0 0 0 0 0 0 0 0 0 0 0 0 0 0 0 0 0 0 0 0 0 0 0 0 0 0 0 0 0 0 0 0 0 0 0 0
0 0 0 0 0 0 0 0 0 0 0 0 0 0 0 0 0 0 0 0 0 0 0 0 0 0 0 0 0 0 1 0 0 0 0 0 0 0 0 0 0 0 0
0 0 0 0 0 0 0 0 0 0 0 0 0 0 0 0 0 0 0 0 0 0 0 0 0 0 0 0 1 1 0 0 0 0 0 0 0 0 0 0 0 0 0
0 0 0 0 0 0 0 0 0 0 0 0 0 0 0 0 0 0 0 0 0 0 0 0 0 0 0 0 0 0 0 0 0 0 0 0 0 0 0 0 0 0 0
0 0 0 0 0 0 0 0 0 0 0 0 0 0 0 0 0 0 0 0 0 0 0 1 1 0 0 0 0 0 0 0 0 0 0 0 0 0 0 0 0 0 0
0 0 0 0 0 0 0 0 0 0 0 0 0 0 0 0 0 0 0 0 0 1 2 0 0 0 0 0 0 0 0 0 0 0 0 0 0 0 0 0 0 0 0
0 0 0 0 0 0 0 0 0 0 0 0 0 0 0 1 0 0 0 0 0 1 1 1 1 1 0 0 0 0 0 0 0 0 0 0 0 0 0 0 0 0 0
0 0 0 0 0 0 0 0 0 0 0 0 0 0 0 0 0 0 0 3 3 1 1 2 2 0 0 0 0 0 0 0 0 0 0 0 0 0 0 0 0 0 0
0 0 0 0 0 0 0 0 0 0 0 0 0 0 0 0 0 0 0 2 6 6 5 1 1 1 1 0 0 0 0 0 0 0 0 0 0 0 0 0 0 0 0
0 0 0 0 0 0 0 0 0 0 0 0 0 0 0 0 2 2 3 1 3 1 0 5 6 7 5 0 0 0 0 0 0 0 0 0 0 0 0 0 0 0 0
0 0 0 0 0 0 0 0 0 0 0 0 0 0 0 4 4 3 4 0 2 1 0 1 0 1 2 3 3 0 0 0 0 0 0 0 0 0 0 0 0 0 0
0 0 0 0 0 0 0 0 0 0 0 0 0 0 0 0 2 2 0 0 1 2 1 2 2 3 3 2 5 4 0 0 0 0 0 0 0 0 0 0 0 0 0
0 0 0 0 0 0 0 0 0 0 0 0 0 0 0 0 0 0 0 0 1 0 0 1 1 0 0 1 2 4 2 0 1 0 0 0 0 0 0 0 0 0 0
0 0 0 0 0 0 0 0 0 0 0 0 0 0 0 0 0 0 0 0 0 0 0 0 0 0 0 0 0 0 0 1 0 1 1 0 0 0 0 0 0 0 0
0 0 0 0 0 0 0 0 0 0 0 0 0 0 0 0 0 0 0 0 0 0 0 0 0 0 0 0 0 0 0 0 0 0 0 0 0 0 0 0 0 0 0
0 0 0 0 0 0 0 0 0 0 0 0 0 0 0 0 0 0 0 0 0 0 0 0 0 0 0 0 0 0 0 1 0 0 0 0 0 0 0 0 0 0 0
CIN
0 0 0 0 0 0 0 0 0 0 0 0 0 0 0 0 0 0 0 0 0 0 0 0 0 0 0 0 0 0 0 0 0 0 0 0 0 0 0 0 0 0 0
0 0 0 0 0 0 0 0 0 0 0 0 0 0 0 0 0 0 0 0 0 0 0 0 0 0 0 0 0 0 0 0 0 0 0 0 0 0 0 0 0 0 0
0 0 0 0 0 0 0 0 0 0 0 0 0 0 0 0 0 0 0 0 0 0 0 0 0 0 0 0 0 0 0 0 0 0 0 0 0 0 0 0 0 0 0
0 0 0 0 0 0 0 0 0 0 0 0 0 0 0 0 0 0 0 0 0 0 0 0 0 0 0 0 0 0 0 0 0 0 0 0 0 0 0 0 0 0 0
0 0 0 0 0 0 0 0 0 0 0 0 0 0 0 0 0 0 0 0 0 0 0 0 0 0 0 0 0 0 0 0 0 0 0 0 0 0 0 0 0 0 0
0 0 0 0 0 0 0 0 0 0 0 0 0 0 0 0 0 0 0 0 0 0 0 0 0 0 0 0 0 0 0 0 0 0 0 0 0 0 0 0 0 0 0
0 0 0 0 0 0 0 0 0 0 0 0 0 0 0 0 0 0 0 0 0 0 0 0 0 0 0 0 0 0 0 0 0 0 0 0 0 0 0 0 0 0 0
0 0 0 0 0 0 0 0 0 0 0 0 0 0 0 0 0 0 0 0 0 0 0 0 0 0 0 0 0 0 0 0 0 0 0 0 0 0 0 0 0 0 0
0 0 0 0 0 0 0 0 0 0 0 0 0 0 0 0 0 0 0 0 0 0 0 0 0 0 0 0 0 0 0 0 0 0 0 0 0 0 0 0 0 0 0
0 0 0 0 0 0 0 0 0 0 0 0 0 0 0 0 0 0 0 0 0 0 0 0 0 0 0 0 0 0 0 0 0 0 0 0 0 0 0 0 0 0 0
0 0 0 0 0 0 0 0 0 0 0 0 0 0 0 0 0 0 0 0 0 0 0 0 0 0 0 0 0 0 0 0 0 0 0 0 0 0 0 0 0 0 0
0 0 0 0 0 0 0 0 0 0 0 0 0 0 0 0 0 0 0 0 0 0 0 0 0 0 0 0 0 0 0 0 0 0 0 0 0 0 0 0 0 0 0
0 0 0 0 0 0 0 0 0 0 0 0 0 0 0 0 0 0 0 0 0 0 0 0 0 0 0 0 0 0 0 0 0 0 0 0 0 0 0 0 0 0 0
0 0 0 0 0 0 0 0 0 0 0 0 0 0 0 0 0 0 0 0 0 0 0 0 0 0 0 0 0 0 0 0 0 0 0 0 0 0 0 0 0 0 0
0 0 0 0 0 0 0 0 0 0 0 0 0 0 0 0 0 0 0 0 0 0 -1 -1 -1 0 0 0 0 0 0 -1 0 0 0 0 0 0 0 0 0 0 0
0 0 0 0 0 0 0 0 0 0 0 0 0 0 0 0 0 0 0 0 0 0 0 0 0 0 -1 -1 0 0 0 0 0 0 0 0 0 0 0 0 0 0 0
0 0 0 0 0 0 0 0 0 0 0 0 0 0 0 0 0 0 0 0 0 0 0 0 0 -1 0 0 0 0 0 0 0 0 0 0 0 0 0 0 0 0 0
0 0 0 0 0 0 0 0 0 0 0 0 0 0 0 0 0 0 0 0 0 0 0 0 0 0 0 0 -1 0 0 0 0 0 0 0 0 0 0 0 0 0 0
0 0 0 0 0 0 0 0 0 0 0 0 0 0 0 0 0 0 0 0 0 0 0 0 0 0 0 0 0 0 0 0 0 0 0 0 0 0 0 0 0 0 0
0 0 0 0 0 0 0 0 0 0 0 0 0 0 0 0 0 0 0 0 0 0 -2 0 0 0 0 -1 0 0 0 0 0 0 0 0 0 0 0 0 0 0 0
0 0 0 0 0 0 0 0 0 0 0 0 0 0 0 0 0 0 0 0 0 0 0 0 0 -1 0 0 0 -1 0 0 0 0 0 0 0 0 0 0 0 0 0
0 0 0 0 0 0 0 0 0 0 0 0 0 0 0 0 0 0 0 -1 0 0 0 0 0 0 0 0 0 0 -1 0 0 0 0 0 0 0 0 0 0 0 0
0 0 0 0 0 0 0 0 0 0 0 0 0 0 0 0 0 0 -1 0 0 -1 -1 0 0 0 0 0 0 0 0 -1 -1 0 0 0 0 0 0 0 0 0 0
0 0 0 0 0 0 0 0 0 0 0 0 0 0 0 0 0 0 0 0 0 0 0 0 0 0 0 0 0 0 0 0 -1 -1 -1 0 0 0 0 0 0 0 0
0 0 0 0 0 0 0 0 0 0 0 0 0 0 0 0 0 0 0 0 0 0 0 0 0 0 0 0 0 0 0 0 0 0 0 0 0 0 0 0 0 0 0
0 0 0 0 0 0 0 0 0 0 0 0 0 0 0 0 0 0 0 0 0 0 0 0 0 0 0 0 0 0 0 0 0 0 0 0 0 0 0 0 0 0 0
Wind_Speed
12 11 10 10 11 10 8 8 9 10 10 10 9 8 7 7 6 5 5 5 4 5 4 4 4 3 2 3 2 1 2 2 3 2 1 3 3 3 3 3 0 3 1
12 12 11 11 11 10 10 10 10 10 10 9 9 8 8 7 6 5 6 6 7 7 5 5 4 3 3 1 3 3 2 1 2 4 2 3 3 2 3 3 2 1 3
11 11 11 10 10 10 10 10 10 10 9 9 8 8 8 7 7 6 7 7 5 5 5 5 4 4 3 3 5 3 2 3 3 3 3 1 1 1 3 3 2 2 2
10 10 9 10 10 9 9 10 10 9 10 9 8 8 7 7 7 7 5 5 5 4 4 3 4 5 4 4 4 3 2 3 3 3 3 2 2 2 1 2 3 2 2
10 10 10 8 9 9 10 9 8 8 8 8 8 7 7 7 6 7 6 6 5 5 5 5 4 4 1 4 2 3 4 3 3 3 3 2 3 3 3 2 1 2 3
10 9 9 9 8 8 9 8 8 8 7 6 7 7 8 5 8 9 6 6 6 5 5 6 5 4 6 9 8 7 6 4 4 3 3 4 4 2 2 2 1 1 1
8 7 8 9 9 9 9 9 9 9 8 7 7 7 6 6 11 11 11 4 5 6 6 5 5 4 6 6 8 8 8 9 8 5 6 4 2 4 2 2 3 2 2
8 8 8 10 9 8 9 9 8 7 8 7 6 6 7 6 13 14 13 7 5 5 5 6 6 7 8 7 7 7 6 5 4 3 5 4 3 3 5 1 1 1 2
10 10 10 10 10 10 11 10 8 8 7 7 5 7 7 4 10 12 12 7 6 6 5 7 8 8 12 15 8 6 5 5 4 7 8 7 5 6 5 3 2 2 2
11 11 10 10 10 10 10 9 4 4 4 4 4 3 4 5 11 15 14 5 7 6 6 8 13 11 13 16 10 7 7 7 5 3 4 6 6 6 7 4 1 3 2
7 7 8 9 9 8 6 4 4 3 4 4 3 3 5 6 7 16 18 8 7 7 7 7 7 19 20 18 19 10 9 4 8 5 4 4 4 3 4 5 5 4 3
8 7 6 5 4 5 7 4 5 5 4 3 3 4 5 6 10 14 18 21 16 9 8 6 6 17 19 21 16 18 18 11 4 5 5 6 6 6 6 5 6 6 5
8 7 6 6 5 5 6 6 5 4 4 5 5 5 4 4 4 13 16 19 21 12 6 7 11 14 17 16 21 19 14 8 7 7 8 7 7 5 4 3 4 4 4
8 7 6 7 6 5 5 6 6 6 5 4 4 5 3 2 3 4 5 7 13 11 11 9 9 10 12 10 7 12 8 8 9 8 8 6 4 3 4 5 5 5 4
8 6 6 5 5 5 2 3 3 2 3 3 3 3 2 2 2 4 4 3 4 6 5 5 6 5 6 6 6 7 7 7 8 8 7 6 6 6 6 6 6 4 6
8 6 5 5 5 5 5 3 2 2 2 2 4 2 1 2 5 5 5 6 8 7 4 7 7 7 5 5 6 6 8 8 8 7 7 7 7 7 7 7 6 7 7
7 6 4 5 4 5 2 3 3 3 4 0 2 3 6 6 7 7 6 5 5 5 5 6 5 6 6 7 8 8 8 8 8 8 8 8 8 7 7 8 8 8 8
7 8 5 5 5 4 3 3 2 3 1 2 5 4 5 5 3 6 9 7 3 6 6 6 6 6 7 7 7 8 7 7 7 8 8 8 8 8 8 8 10 10 9
5 5 4 5 5 4 3 3 3 3 2 2 1 2 3 4 2 3 6 4 3 3 3 5 7 7 6 7 7 7 8 7 7 7 8 8 8 8 9 9 9 13 11
6 7 6 4 4 4 4 3 2 2 1 2 1 2 1 2 3 3 2 4 4 3 4 5 5 5 7 6 6 5 6 6 7 7 7 7 8 8 9 10 10 10 10
4 5 5 5 4 4 3 4 2 1 2 2 1 1 2 3 3 4 4 5 5 5 5 6 6 7 7 6 5 5 6 6 6 7 7 7 8 9 9 9 9 10 9
4 3 3 4 2 3 4 4 2 2 1 0 1 2 7 3 4 5 5 7 6 5 4 5 5 6 6 7 7 6 7 7 6 6 7 7 7 8 8 8 9 9 8
2 3 3 2 3 3 4 4 3 2 3 2 1 1 4 5 4 4 5 6 6 5 5 5 5 6 5 6 7 7 7 7 6 6 7 7 7 7 7 8 9 9 9
2 1 3 2 4 3 4 3 2 4 1 2 3 4 4 4 4 4 4 4 4 4 4 3 4 6 6 6 7 7 7 7 6 7 9 8 8 8 8 8 9 10 9
1 2 1 4 4 2 3 2 2 2 2 3 4 4 4 4 3 3 4 4 3 4 5 4 4 6 7 8 9 9 9 11 11 11 8 9 10 11 9 8 8 8 9
2 3 3 3 3 2 3 2 2 4 3 4 4 4 3 3 3 4 3 4 4 5 6 5 6 9 10 8 8 10 10 14 12 12 9 8 8 8 7 9 11 8 8
Wind_Direction
167 161 154 160 168 161 158 159 162 154 160 164 166 158 160 166 170 166 153 148 138 136 164 168 136 150 173 209 209 233 243 270 280 92 89 127 198 240 201 197 357 313 282
167 161 162 163 160 164 171 162 156 161 168 163 162 159 169 180 163 170 167 168 175 180 169 165 167 180 203 223 233 217 245 215 287 284 139 163 218 182 295 289 217 195 293
165 164 161 164 166 173 164 156 161 161 165 164 161 171 175 176 171 184 182 182 181 171 172 186 165 189 200 210 232 220 216 249 247 268 284 100 227 150 276 250 244 306 255
167 166 166 171 173 169 158 155 166 168 167 168 171 175 179 175 185 190 187 170 177 164 164 186 186 201 222 221 225 235 241 250 240 255 260 240 197 110 283 286 286 173 241
171 172 170 159 165 157 157 161 163 169 170 169 171 179 176 187 192 186 186 177 173 171 172 190 200 211 5 295 242 225 215 241 237 250 257 243 225 189 226 88 276 297 284
174 174 161 159 155 153 154 161 154 168 170 168 176 176 188 197 188 183 169 181 182 176 185 193 194 178 221 233 237 253 268 245 242 236 258 246 244 176 141 218 247 271 306
174 166 148 155 156 162 161 163 169 179 170 176 187 187 193 199 174 189 192 172 179 192 197 200 185 183 206 201 218 227 238 249 250 293 260 252 255 182 150 171 213 199 246
171 161 162 162 160 159 164 174 175 175 182 184 183 189 198 200 181 192 189 198 206 206 194 204 199 203 203 206 195 205 219 221 227 242 263 286 309 135 193 188 54 274 292
177 178 171 165 161 168 181 180 178 179 180 187 174 194 200 189 178 191 188 194 216 207 203 206 210 217 208 211 208 215 222 226 225 245 253 257 233 211 192 150 203 195 260
180 185 172 167 171 179 183 184 170 175 171 166 169 151 177 190 186 199 197 195 214 208 207 215 219 221 217 215 213 204 214 225 189 191 217 216 199 195 210 228 200 210 222
155 143 162 171 175 177 161 148 148 125 108 121 157 171 190 195 204 206 208 207 214 209 215 213 213 218 224 219 216 207 209 180 208 194 213 206 190 223 200 202 227 221 217
138 147 161 156 145 142 144 126 125 127 138 167 189 218 210 199 210 220 221 220 219 215 221 219 209 212 222 225 223 226 221 217 176 201 212 223 217 214 215 209 215 227 242
139 148 140 135 138 144 143 140 126 148 187 201 205 226 226 193 208 230 239 237 234 232 226 227 214 217 222 232 231 229 228 205 186 206 223 226 221 214 190 174 207 222 241
138 139 137 138 144 149 153 159 172 181 198 210 206 225 221 190 187 198 222 243 249 244 242 231 231 220 224 227 222 233 222 211 202 215 224 218 198 162 192 205 214 207 225
123 127 133 138 150 144 113 148 165 157 160 187 202 184 194 226 220 220 210 213 231 238 242 231 232 217 228 224 226 221 224 221 199 212 217 207 194 190 210 205 215 212 219
123 123 138 134 142 138 152 144 133 183 131 255 262 238 71 274 298 294 288 274 258 262 250 249 245 249 243 237 229 230 221 214 211 214 217 213 206 202 205 203 201 212 225
116 129 113 125 133 131 125 131 141 120 90 354 290 272 269 276 281 279 280 272 273 252 245 257 249 251 242 237 237 232 234 222 211 215 219 218 216 211 197 207 208 212 225
74 72 89 69 49 37 43 70 65 79 98 106 76 40 342 309 319 305 274 244 211 229 228 246 252 240 238 238 234 237 236 235 209 216 222 222 217 216 211 214 217 218 222
87 73 80 95 83 87 91 79 76 83 92 94 92 109 22 347 30 355 306 288 281 271 258 245 245 249 248 240 240 235 234 232 223 209 220 221 222 217 225 226 226 223 221
79 80 76 81 90 97 78 60 71 74 84 75 26 55 315 297 33 18 337 315 289 280 289 290 311 281 266 247 246 234 244 235 234 225 226 225 225 223 229 229 227 226 220
65 59 68 78 82 77 88 71 44 44 49 51 45 55 332 325 22 41 353 324 335 334 331 327 317 313 311 317 305 276 258 249 241 236 231 232 229 229 229 231 234 231 234
50 57 54 73 82 88 88 91 69 25 43 71 32 10 7 46 11 21 333 308 314 325 323 317 313 313 316 316 305 289 277 267 252 250 244 240 236 237 237 232 237 235 224
58 105 97 84 94 132 95 70 69 31 354 351 360 339 31 34 16 21 323 308 314 319 319 322 317 308 306 307 310 302 290 288 282 262 262 248 242 240 233 236 235 234 227
21 61 93 106 60 72 67 80 96 97 335 320 16 24 34 26 11 357 302 308 308 312 315 322 310 301 304 306 304 304 305 301 283 281 279 264 255 244 234 235 235 232 232
32 81 75 72 65 78 115 95 85 81 39 23 30 17 24 10 359 335 309 302 297 306 319 312 299 303 304 302 297 293 295 301 296 285 279 269 262 261 251 240 237 236 221
102 81 74 91 99 75 73 83 69 60 36 37 23 13 0 353 339 311 300 295 315 322 308 311 308 303 302 301 298 305 304 304 297 288 262 253 249 252 253 248 244 236 224